sat.trackr.live / text

‹ back to catalog

ESEO

NORAD 43792 · 2018-099AL

PAYLOAD ACTIVE UNKNOWN

§ Identity

Operator
Country
ESA
Launch date
2018-12-03
Launch site
AFWTR
Launch vehicle
Mass (kg)
RCS (m²)

External: N2YO · Heavens-Above · Gunter

§ Orbital elements

Epoch: 2026-09-20T02:19:57.972864Z

Period
95.71 min
Inclination
97.3909°
Eccentricity
0.0012286
Mean motion
15.04480750 rev/d
Perigee alt
544.6 km
Apogee alt
561.6 km
Semi-major
6,931.2 km
B*
7.5187e-5
RAAN
296.3985°
Arg perigee
17.7578°
Mean anomaly
342.4076°
Rev number
42,607

§ Raw data

ESEO1 43792U 18099AL  26263.09719876  .00000995  00000+0  75187-4 0  99922 43792  97.3909 296.3985 0012286  17.7578 342.4076 15.04480750426079

JSON: /api/v1/satellites/43792 · /tle

For live sub-satellite position, see the globe view (requires WebGL).

§ Visibility from observer

Set your observer location to see the next 7 days of passes ≥ 10°. The values pass through the URL so the page stays shareable.

No JS? Fill the form by hand. The geolocation button needs JavaScript.

§ Radio — SatNOGS DB

ModeDescriptionDownlinkUplink
BPSK BPSK1k2 AX25 FUNcube-4 Beacon 145.895 MHz
BPSK BPSK4k8 AX25 FUNcube-4 Beacon 145.895 MHz
FM FM 145.895 MHz 1.264 GHz
GMSK GMSK4k8 AX25 ESEO TLM 437.000 MHz
GMSK GMSK9k6 AX25 ESEO TLM 437.000 MHz

5 transmitters · refreshed weekly from db.satnogs.org